Starlink 30941

operational
NORAD ID: 58475 Int'l Des: 2023-186 Owner: SPXS Country: US Constellation: starlink
LEOCIRCULAR

Über Starlink 30941

Beschreibung wird geladen...

Live-Position

3D-Globus wird geladen...

Nächste Überflüge

Höhenverlauf

Altitude vs Time

uPlot chart will show altitude changes over time

Zweizeiliger Elementsatz

1 58475U 23186C 25259.15086222 .00000661 00000-0 64011-4 0 9997
2 58475 43.0031 296.0794 0001446 281.7031 78.3649 15.02539291 99592
Epoch: 16. Sept. 2025 • Age: 14 hours

Aktueller Status

Höhe 566.8 km
Geschwindigkeit 7.58 km/s
Subsatellitenpunkt -31.44°S, 10.14°W
Startdatum 3. Dez. 2023
Alter 1.7 years
Typ internet

Technische Details

Klassifizierung Payload
Masse 730.00 kg
Trockenmasse 700.00 kg
Gesamtmasse 730.00 kg
Länge 0.30 m
Durchmesser 4.10 m
Spannweite 29.00 m
Form Box + pan
Hersteller SPXS
Bus-Typ Starlink V2M
Phasenstatus In Orbit
Besitzer/Staat SPXS/US

Große Konstellationen

Loading constellations...